This is the latest recevied weather packets stored in our database for station/object ED1ZAI-13. If no packets are shown the sender has not sent any weather packets the latest 10 day(s).
| Time | Temp. | Humidity | Pressure | Rain* | Wind** | Luminosity | Snow |
|---|---|---|---|---|---|---|---|
| 1788481129 | 20.56° C | 41% | 1024.4 hPa | - | - | - | - |
| 1788480506 | 20.56° C | 41% | 1024.5 hPa | - | - | - | - |
| 1788479905 | 21.11° C | 39% | 1025.1 hPa | - | - | - | - |
| 1788479305 | 21.67° C | 37% | 1025.4 hPa | - | - | - | - |
| 1788478705 | 22.22° C | 36% | 1025.3 hPa | - | - | - | - |
| 1788478104 | 22.78° C | 36% | 1025.4 hPa | - | - | - | - |
| 1788477506 | 22.78° C | 35% | 1025.4 hPa | - | - | - | - |
| 1788476906 | 22.78° C | 35% | 1025.3 hPa | - | - | - | - |
| 1788476305 | 22.22° C | 35% | 1025.3 hPa | - | - | - | - |
| 1788475705 | 22.78° C | 35% | 1025.2 hPa | - | - | - | - |
| 1788475105 | 22.78° C | 36% | 1025.1 hPa | - | - | - | - |
| 1788474504 | 23.33° C | 36% | 1025.1 hPa | - | - | - | - |
| 1788473904 | 23.33° C | 35% | 1025 hPa | - | - | - | - |
| 1788473306 | 23.89° C | 34% | 1025.1 hPa | - | - | - | - |
| 1788469104 | 27.22° C | 26% | 1025 hPa | - | - | - | - |
| 1788468505 | 26.67° C | 26% | 1024.9 hPa | - | - | - | - |
| 1788467904 | 26.67° C | 26% | 1025 hPa | - | - | - | - |
| 1788467304 | 27.22° C | 25% | 1024.8 hPa | - | - | - | - |
| 1788466706 | 27.78° C | 24% | 1024.8 hPa | - | - | - | - |
| 1788466106 | 27.78° C | 24% | 1024.7 hPa | - | - | - | - |
| 1788465505 | 28.33° C | 23% | 1024.6 hPa | - | - | - | - |
| 1788464905 | 28.33° C | 23% | 1024.5 hPa | - | - | - | - |
| 1788464305 | 28.33° C | 23% | 1024.4 hPa | - | - | - | - |
| 1788463704 | 28.33° C | 23% | 1024.2 hPa | - | - | - | - |
| 1788463104 | 28.89° C | 23% | 1024.1 hPa | - | - | - | - |
* Rain since midnight (hover to see other rain measurements)
** Current wind speed in m/s (hover to see current wind gust speed)